"read_dt","SO2 (ppb)","flags","PMT voltage (V)","lamp voltage (V)","lamp intensity (Hz)","internal temp (C)","react chamber temp (C)","sample flow (l/min)","pres (mmHg)","SO2 bkg (ppb)","SO2 coefficient"
2014-05-07 00:00:00,2783E-2,5C000400,-0724,1018,10272,028.0,045.3,0.155,761.0,01.16,0.508
2014-05-07 00:01:00,2799E-2,5C000400,-0724,1018,10334,028.0,045.3,0.154,760.9,01.16,0.508
2014-05-07 00:02:00,2818E-2,5C000400,-0724,1018,10435,028.0,045.3,0.154,760.9,01.16,0.508
2014-05-07 00:03:00,2773E-2,5C000400,-0724,1020,10138,028.0,045.3,0.154,760.9,01.16,0.508
2014-05-07 00:04:00,2743E-2,5C000400,-0724,1020,10225,028.0,045.3,0.154,761.0,01.16,0.508
2014-05-07 00:05:00,2812E-2,5C000400,-0724,1019,10472,028.0,045.3,0.154,761.0,01.16,0.508
2014-05-07 00:06:00,2786E-2,5C000400,-0724,1020,10325,028.0,045.3,0.154,760.9,01.16,0.508
2014-05-07 00:07:00,2852E-2,5C000400,-0724,1019,10273,028.1,045.3,0.154,760.9,01.16,0.508
2014-05-07 00:08:00,2772E-2,5C000400,-0724,1019,10288,028.1,045.3,0.154,761.0,01.16,0.508
2014-05-07 00:09:00,2818E-2,5C000400,-0724,1020,10422,028.1,045.3,0.154,760.9,01.16,0.508
2014-05-07 00:10:00,2854E-2,5C000400,-0724,1020,10161,028.1,045.3,0.154,760.9,01.16,0.508
2014-05-07 00:11:00,2797E-2,5C000400,-0724,1019,10280,028.1,045.3,0.154,761.0,01.16,0.508
2014-05-07 00:12:00,2826E-2,5C000400,-0724,1021,10273,028.1,045.3,0.154,760.9,01.16,0.508
2014-05-07 00:13:00,2793E-2,5C000400,-0724,1020,10415,028.1,045.3,0.154,760.9,01.16,0.508
2014-05-07 00:14:00,2834E-2,5C000400,-0724,1021,10330,028.1,045.3,0.154,761.0,01.16,0.508
2014-05-07 00:15:00,2835E-2,5C000400,-0724,1022,10094,028.1,045.3,0.154,761.0,01.16,0.508
2014-05-07 00:16:00,2783E-2,5C000400,-0724,1022,10307,028.1,045.3,0.154,760.9,01.16,0.508
2014-05-07 00:17:00,2794E-2,5C000400,-0724,1022,10384,028.1,045.3,0.154,760.8,01.16,0.508
2014-05-07 00:18:00,2756E-2,5C000400,-0724,1024,10129,028.1,045.3,0.154,760.9,01.16,0.508
2014-05-07 00:19:00,2731E-2,5C000400,-0724,1026,10225,028.1,045.3,0.154,760.9,01.16,0.508
2014-05-07 00:20:00,2742E-2,5C000400,-0724,1025,10393,028.1,045.3,0.154,760.9,01.16,0.508
2014-05-07 00:21:00,2779E-2,5C000400,-0724,1026,10310,028.1,045.3,0.154,760.9,01.16,0.508
2014-05-07 00:22:00,2753E-2,5C000400,-0724,1025,10287,028.1,045.3,0.154,760.9,01.16,0.508
2014-05-07 00:23:00,2761E-2,5C000400,-0724,1026,10237,028.1,045.3,0.154,760.9,01.16,0.508
2014-05-07 00:24:00,2713E-2,5C000400,-0724,1025,10297,028.1,045.3,0.154,760.9,01.16,0.508
2014-05-07 00:25:00,2779E-2,5C000400,-0724,1026,10298,028.1,045.3,0.154,760.9,01.16,0.508
2014-05-07 00:26:00,2773E-2,5C000400,-0724,1028,10315,028.1,045.3,0.154,760.9,01.16,0.508
2014-05-07 00:27:00,2742E-2,5C000400,-0724,1026,10162,028.1,045.3,0.154,760.9,01.16,0.508
2014-05-07 00:28:00,2708E-2,5C000400,-0724,1027,10300,028.1,045.3,0.154,760.9,01.16,0.508
2014-05-07 00:29:00,2758E-2,5C000400,-0724,1026,10266,028.2,045.3,0.154,760.9,01.16,0.508
2014-05-07 00:30:00,2779E-2,5C000400,-0724,1026,10050,028.2,045.3,0.154,760.9,01.16,0.508
2014-05-07 00:31:00,2756E-2,5C000400,-0724,1026,10200,028.2,045.3,0.154,760.8,01.16,0.508
2014-05-07 00:32:00,2715E-2,5C000400,-0724,1026,10198,028.2,045.3,0.154,760.9,01.16,0.508
2014-05-07 00:33:00,2778E-2,5C000400,-0724,1027,10237,028.2,045.3,0.154,760.9,01.16,0.508
2014-05-07 00:34:00,2744E-2,5C000400,-0724,1026,10250,028.2,045.3,0.154,760.8,01.16,0.508
2014-05-07 00:35:00,2687E-2,5C000400,-0724,1027,10341,028.2,045.3,0.154,760.9,01.16,0.508
2014-05-07 00:36:00,2740E-2,5C000400,-0724,1028,10194,028.2,045.3,0.154,760.9,01.16,0.508
2014-05-07 00:37:00,2750E-2,5C000400,-0724,1026,10197,028.2,045.3,0.154,760.9,01.16,0.508
2014-05-07 00:38:00,2746E-2,5C000400,-0724,1026,10299,028.2,045.3,0.154,760.8,01.16,0.508
2014-05-07 00:39:00,2759E-2,5C000400,-0724,1027,10147,028.2,045.3,0.154,760.8,01.16,0.508
2014-05-07 00:40:00,2729E-2,5C000400,-0724,1028,10348,028.2,045.3,0.154,760.9,01.16,0.508
2014-05-07 00:41:00,2739E-2,5C000410,-0724,1027,10296,028.2,045.3,0.154,760.9,01.16,0.508
2014-05-07 00:42:00,2749E-2,5C000400,-0724,1028,10285,028.2,045.3,0.154,760.8,01.16,0.508
2014-05-07 00:43:00,2722E-2,5C000400,-0724,1027,10391,028.2,045.3,0.154,760.8,01.16,0.508
2014-05-07 00:44:00,2743E-2,5C000400,-0724,1028,10067,028.3,045.3,0.154,760.9,01.16,0.508
2014-05-07 00:45:00,2793E-2,5C000400,-0724,1029,10270,028.2,045.3,0.154,760.8,01.16,0.508
2014-05-07 00:46:00,2773E-2,5C000400,-0724,1029,10224,028.2,045.3,0.154,760.8,01.16,0.508
2014-05-07 00:47:00,2740E-2,5C000400,-0724,1027,10233,028.3,045.3,0.154,760.7,01.16,0.508
2014-05-07 00:48:00,2741E-2,5C000400,-0724,1028,10214,028.3,045.3,0.154,760.7,01.16,0.508
2014-05-07 00:49:00,2815E-2,5C000400,-0724,1029,10304,028.3,045.3,0.154,760.8,01.16,0.508
2014-05-07 00:50:00,2710E-2,5C000400,-0724,1028,10134,028.3,045.3,0.154,760.8,01.16,0.508
2014-05-07 00:51:00,2748E-2,5C000400,-0724,1028,10246,028.3,045.3,0.154,760.8,01.16,0.508
2014-05-07 00:52:00,2755E-2,5C000400,-0724,1026,10049,028.3,045.4,0.154,760.8,01.16,0.508
2014-05-07 00:53:00,2695E-2,5C000400,-0724,1028,10345,028.3,045.3,0.154,760.8,01.16,0.508
2014-05-07 00:54:00,2735E-2,5C000400,-0724,1028,10490,028.3,045.3,0.154,760.7,01.16,0.508
2014-05-07 00:55:00,2765E-2,5C000400,-0724,1029,10177,028.3,045.3,0.154,760.7,01.16,0.508
2014-05-07 00:56:00,2756E-2,5C000400,-0724,1028,10307,028.3,045.3,0.154,760.8,01.16,0.508
2014-05-07 00:57:00,2778E-2,5C000400,-0724,1029,10172,028.3,045.3,0.154,760.7,01.16,0.508
2014-05-07 00:58:00,2793E-2,5C000400,-0724,1028,10165,028.3,045.3,0.154,760.7,01.16,0.508
2014-05-07 00:59:00,2717E-2,5C000400,-0724,1029,10367,028.3,045.3,0.154,760.8,01.16,0.508
2014-05-07 01:00:00,2801E-2,5C000400,-0724,1029,10281,028.3,045.4,0.154,760.8,01.16,0.508
2014-05-07 01:01:00,2774E-2,5C000400,-0724,1029,10171,028.4,045.3,0.154,760.7,01.16,0.508
2014-05-07 01:02:00,2770E-2,5C000400,-0724,1030,10214,028.4,045.3,0.154,760.7,01.16,0.508
2014-05-07 01:03:00,2769E-2,5C000400,-0724,1032,10245,028.3,045.3,0.154,760.7,01.16,0.508
2014-05-07 01:04:00,2795E-2,5C000400,-0724,1032,10144,028.4,045.3,0.154,760.7,01.16,0.508
2014-05-07 01:05:00,2771E-2,5C000400,-0724,1033,10263,028.4,045.3,0.154,760.7,01.16,0.508
2014-05-07 01:06:00,2792E-2,5C000400,-0724,1035,10187,028.4,045.3,0.154,760.7,01.16,0.508
2014-05-07 01:07:00,2791E-2,5C000400,-0724,1034,10264,028.4,045.3,0.154,760.7,01.16,0.508
2014-05-07 01:08:00,2776E-2,5C000400,-0724,1036,10236,028.4,045.3,0.154,760.6,01.16,0.508
2014-05-07 01:09:00,2826E-2,5C000400,-0724,1037,10252,028.4,045.3,0.153,760.6,01.16,0.508
2014-05-07 01:10:00,2761E-2,5C000400,-0724,1036,10265,028.4,045.3,0.153,760.6,01.16,0.508
2014-05-07 01:11:00,2812E-2,5C000400,-0724,1037,10213,028.4,045.3,0.153,760.6,01.16,0.508
2014-05-07 01:12:00,2794E-2,5C000400,-0724,1038,10226,028.4,045.3,0.153,760.6,01.16,0.508
2014-05-07 01:13:00,2814E-2,5C000400,-0724,1038,10000,028.4,045.3,0.153,760.6,01.16,0.508
2014-05-07 01:14:00,2822E-2,5C000400,-0724,1037,10119,028.4,045.3,0.153,760.6,01.16,0.508
2014-05-07 01:15:00,2816E-2,5C000410,-0724,1038,10086,028.4,045.3,0.153,760.6,01.16,0.508
2014-05-07 01:16:00,2821E-2,5C000400,-0724,1038,10042,028.4,045.3,0.153,760.5,01.16,0.508
2014-05-07 01:17:00,2824E-2,5C000400,-0724,1039,10118,028.4,045.3,0.153,760.5,01.16,0.508
2014-05-07 01:18:00,2847E-2,5C000400,-0724,1039,10215,028.4,045.3,0.153,760.6,01.16,0.508
2014-05-07 01:19:00,2791E-2,5C000400,-0724,1041,10271,028.4,045.3,0.153,760.5,01.16,0.508
2014-05-07 01:20:00,2826E-2,5C000400,-0724,1038,9989,028.4,045.3,0.153,760.5,01.16,0.508
2014-05-07 01:21:00,2818E-2,5C000400,-0724,1039,10174,028.4,045.3,0.153,760.5,01.16,0.508
2014-05-07 01:22:00,2838E-2,5C000400,-0724,1040,10216,028.4,045.3,0.153,760.5,01.16,0.508
2014-05-07 01:23:00,2838E-2,5C000400,-0724,1041,10056,028.5,045.3,0.153,760.5,01.16,0.508
2014-05-07 01:24:00,2806E-2,5C000400,-0724,1040,10289,028.5,045.3,0.153,760.5,01.16,0.508
2014-05-07 01:25:00,2833E-2,5C000400,-0724,1040,10072,028.5,045.3,0.153,760.5,01.16,0.508
2014-05-07 01:26:00,2804E-2,5C000400,-0724,1043,10060,028.5,045.3,0.153,760.6,01.16,0.508
2014-05-07 01:27:00,2815E-2,5C000400,-0724,1040,10086,028.5,045.3,0.153,760.5,01.16,0.508
2014-05-07 01:28:00,2817E-2,5C000400,-0724,1041,10025,028.5,045.4,0.153,760.5,01.16,0.508
2014-05-07 01:29:00,2789E-2,5C000410,-0724,1040,10192,028.5,045.3,0.153,760.5,01.16,0.508
2014-05-07 01:30:00,2821E-2,5C000400,-0724,1041,9964,028.5,045.3,0.153,760.5,01.16,0.508
2014-05-07 01:31:00,2826E-2,5C000400,-0724,1040,10069,028.5,045.3,0.153,760.5,01.16,0.508
2014-05-07 01:32:00,2765E-2,5C000400,-0724,1041,10082,028.5,045.4,0.153,760.5,01.16,0.508
2014-05-07 01:33:00,2822E-2,5C000400,-0724,1042,10202,028.5,045.3,0.153,760.5,01.16,0.508
2014-05-07 01:34:00,2863E-2,5C000410,-0724,1042,10188,028.5,045.3,0.153,760.4,01.16,0.508
2014-05-07 01:35:00,2842E-2,5C000400,-0724,1042,10056,028.5,045.3,0.153,760.5,01.16,0.508
2014-05-07 01:36:00,2843E-2,5C000400,-0724,1042,10177,028.5,045.3,0.153,760.5,01.16,0.508
2014-05-07 01:37:00,2831E-2,5C000400,-0724,1041,10193,028.6,045.3,0.153,760.5,01.16,0.508
2014-05-07 01:38:00,2820E-2,5C000400,-0724,1042,10064,028.5,045.3,0.153,760.5,01.16,0.508
2014-05-07 01:39:00,2795E-2,5C000400,-0724,1040,10164,028.6,045.3,0.153,760.5,01.16,0.508
2014-05-07 01:40:00,2790E-2,5C000400,-0724,1040,10062,028.6,045.3,0.153,760.4,01.16,0.508
2014-05-07 01:41:00,2841E-2,5C000400,-0724,1041,10122,028.5,045.3,0.153,760.5,01.16,0.508
2014-05-07 01:42:00,2806E-2,5C000400,-0724,1041,10133,028.6,045.3,0.153,760.5,01.16,0.508
2014-05-07 01:43:00,2784E-2,5C000400,-0724,1042,10055,028.6,045.4,0.153,760.5,01.16,0.508
2014-05-07 01:44:00,2838E-2,5C000400,-0724,1042,10242,028.6,045.3,0.153,760.4,01.16,0.508
2014-05-07 01:45:00,2764E-2,5C000400,-0724,1042,10103,028.6,045.3,0.153,760.5,01.16,0.508
2014-05-07 01:46:00,2803E-2,5C000400,-0724,1045,10177,028.6,045.3,0.153,760.4,01.16,0.508
2014-05-07 01:47:00,2873E-2,5C000400,-0724,1043,10169,028.6,045.3,0.153,760.4,01.16,0.508
2014-05-07 01:48:00,2807E-2,5C000400,-0724,1042,10034,028.6,045.3,0.153,760.3,01.16,0.508
2014-05-07 01:49:00,2817E-2,5C000400,-0724,1043,10114,028.6,045.3,0.153,760.3,01.16,0.508
2014-05-07 01:50:00,2826E-2,5C000400,-0724,1043,10000,028.7,045.3,0.153,760.4,01.16,0.508
2014-05-07 01:51:00,2824E-2,5C000410,-0724,1043,10182,028.6,045.3,0.153,760.4,01.16,0.508
2014-05-07 01:52:00,2813E-2,5C000400,-0724,1043,10126,028.7,045.3,0.153,760.4,01.16,0.508
2014-05-07 01:53:00,2804E-2,5C000400,-0724,1043,10065,028.7,045.4,0.153,760.3,01.16,0.508
2014-05-07 01:54:00,2819E-2,5C000410,-0724,1044,10006,028.7,045.4,0.153,760.4,01.16,0.508
2014-05-07 01:55:00,2833E-2,5C000400,-0724,1043,10067,028.7,045.4,0.153,760.3,01.16,0.508
2014-05-07 01:56:00,2825E-2,5C000410,-0724,1044,10101,028.7,045.4,0.153,760.3,01.16,0.508
2014-05-07 01:57:00,2825E-2,5C000400,-0724,1044,10075,028.7,045.3,0.153,760.3,01.16,0.508
2014-05-07 01:58:00,2833E-2,5C000400,-0724,1044,10068,028.7,045.3,0.153,760.4,01.16,0.508
2014-05-07 01:59:00,2826E-2,5C000400,-0724,1045,10039,028.7,045.3,0.153,760.3,01.16,0.508
2014-05-07 02:00:00,2810E-2,5C000400,-0724,1044,10127,028.7,045.3,0.153,760.2,01.16,0.508
2014-05-07 02:01:00,2815E-2,5C000400,-0724,1044,10127,028.7,045.3,0.152,760.3,01.16,0.508
2014-05-07 02:02:00,2766E-2,5C000400,-0724,1044,10045,028.7,045.3,0.152,760.4,01.16,0.508
2014-05-07 02:03:00,2863E-2,5C000410,-0724,1044,9949,028.7,045.3,0.152,760.3,01.16,0.508
2014-05-07 02:04:00,2856E-2,5C000400,-0724,1046,10081,028.7,045.4,0.153,760.3,01.16,0.508
2014-05-07 02:05:00,2817E-2,5C000400,-0724,1044,10269,028.7,045.4,0.152,760.4,01.16,0.508
2014-05-07 02:06:00,2833E-2,5C000400,-0724,1045,10124,028.7,045.4,0.153,760.3,01.16,0.508
2014-05-07 02:07:00,2805E-2,5C000400,-0724,1045,10012,028.7,045.4,0.152,760.3,01.16,0.508
2014-05-07 02:08:00,2863E-2,5C000400,-0724,1045,10070,028.7,045.4,0.152,760.2,01.16,0.508
2014-05-07 02:09:00,2860E-2,5C000400,-0724,1046,9954,028.7,045.4,0.152,760.2,01.16,0.508
2014-05-07 02:10:00,2827E-2,5C000410,-0724,1047,10167,028.8,045.3,0.152,760.2,01.16,0.508
2014-05-07 02:11:00,2841E-2,5C000400,-0724,1046,10117,028.8,045.3,0.152,760.3,01.16,0.508
2014-05-07 02:12:00,2865E-2,5C000400,-0724,1047,10119,028.8,045.3,0.152,760.2,01.16,0.508
2014-05-07 02:13:00,2837E-2,5C000410,-0724,1048,10155,028.8,045.3,0.152,760.1,01.16,0.508
2014-05-07 02:14:00,2818E-2,5C000400,-0724,1047,10168,028.8,045.3,0.152,760.1,01.16,0.508
2014-05-07 02:15:00,2859E-2,5C000400,-0724,1047,10135,028.8,045.4,0.152,760.2,01.16,0.508
2014-05-07 02:16:00,2813E-2,5C000410,-0724,1049,10126,028.8,045.4,0.152,760.1,01.16,0.508
2014-05-07 02:17:00,2845E-2,5C000400,-0724,1047,10110,028.8,045.3,0.152,760.1,01.16,0.508
2014-05-07 02:18:00,2824E-2,5C000400,-0724,1048,9756,028.8,045.3,0.152,760.1,01.16,0.508
2014-05-07 02:19:00,2841E-2,5C000400,-0724,1047,10065,028.8,045.3,0.152,760.1,01.16,0.508
2014-05-07 02:20:00,2833E-2,5C000400,-0724,1047,10043,028.8,045.4,0.152,760.2,01.16,0.508
2014-05-07 02:21:00,2861E-2,5C000400,-0724,1048,9931,028.8,045.4,0.152,760.1,01.16,0.508
2014-05-07 02:22:00,2824E-2,5C000400,-0724,1048,10030,028.8,045.3,0.152,760.1,01.16,0.508
2014-05-07 02:23:00,2789E-2,5C000400,-0724,1047,10079,028.8,045.3,0.152,760.1,01.16,0.508
2014-05-07 02:24:00,2801E-2,5C000410,-0724,1048,9995,028.9,045.3,0.152,760.1,01.16,0.508
2014-05-07 02:25:00,2847E-2,5C000410,-0724,1046,9933,028.9,045.3,0.152,760.0,01.16,0.508
2014-05-07 02:26:00,2824E-2,5C000400,-0724,1047,10047,028.9,045.4,0.152,760.1,01.16,0.508
2014-05-07 02:27:00,2797E-2,5C000400,-0724,1047,10043,028.8,045.4,0.152,760.0,01.16,0.508
2014-05-07 02:28:00,2836E-2,5C000400,-0724,1047,10039,028.9,045.3,0.152,760.1,01.16,0.508
2014-05-07 02:29:00,2867E-2,5C000400,-0724,1048,10073,028.9,045.4,0.152,760.1,01.16,0.508
2014-05-07 02:30:00,2809E-2,5C000400,-0724,1048,9998,028.9,045.3,0.152,760.0,01.16,0.508
2014-05-07 02:31:00,2805E-2,5C000400,-0724,1048,10044,028.9,045.4,0.152,760.0,01.16,0.508
2014-05-07 02:32:00,2856E-2,5C000400,-0724,1049,10136,028.9,045.4,0.152,760.1,01.16,0.508
2014-05-07 02:33:00,2816E-2,5C000410,-0724,1048,9952,028.9,045.4,0.152,760.0,01.16,0.508
2014-05-07 02:34:00,2828E-2,5C000400,-0724,1048,9946,028.9,045.4,0.152,760.0,01.16,0.508
2014-05-07 02:35:00,2814E-2,5C000400,-0724,1048,10116,028.9,045.3,0.152,760.1,01.16,0.508
2014-05-07 02:36:00,2825E-2,5C000400,-0724,1047,10079,028.9,045.3,0.152,760.1,01.16,0.508
2014-05-07 02:37:00,2853E-2,5C000410,-0724,1047,9927,028.9,045.3,0.152,760.1,01.16,0.508
2014-05-07 02:38:00,2782E-2,5C000400,-0724,1045,9966,028.9,045.4,0.152,760.1,01.16,0.508
2014-05-07 02:39:00,2854E-2,5C000400,-0724,1045,9968,028.9,045.3,0.152,760.2,01.16,0.508
2014-05-07 02:40:00,2818E-2,5C000400,-0724,1043,10172,028.9,045.4,0.152,760.2,01.16,0.508
2014-05-07 02:41:00,2807E-2,5C000400,-0724,1043,10062,029.0,045.3,0.152,760.1,01.16,0.508
2014-05-07 02:42:00,2808E-2,5C000400,-0724,1043,10109,029.0,045.3,0.152,760.2,01.16,0.508
2014-05-07 02:43:00,2835E-2,5C000400,-0724,1043,10087,029.0,045.3,0.152,760.1,01.16,0.508
2014-05-07 02:44:00,2823E-2,5C000400,-0724,1042,10015,028.9,045.4,0.152,760.1,01.16,0.508
2014-05-07 02:45:00,2819E-2,5C000410,-0724,1042,9999,029.0,045.4,0.152,760.2,01.16,0.508
2014-05-07 02:46:00,2761E-2,5C000400,-0724,1041,10143,029.0,045.4,0.152,760.1,01.16,0.508
2014-05-07 02:47:00,2842E-2,5C000400,-0724,1040,10089,029.0,045.4,0.152,760.1,01.16,0.508
2014-05-07 02:48:00,2834E-2,5C000400,-0724,1041,10034,029.0,045.4,0.152,760.1,01.16,0.508
2014-05-07 02:49:00,2795E-2,5C000400,-0724,1039,10011,029.0,045.3,0.152,760.0,01.16,0.508
2014-05-07 02:50:00,2804E-2,5C000400,-0724,1039,10245,029.0,045.4,0.152,760.0,01.16,0.508
2014-05-07 02:51:00,2759E-2,5C000400,-0724,1039,9947,029.0,045.3,0.152,760.0,01.16,0.508
2014-05-07 02:52:00,2822E-2,5C000400,-0724,1039,10124,029.0,045.4,0.152,759.9,01.16,0.508
2014-05-07 02:53:00,2764E-2,5C000410,-0724,1039,10159,029.0,045.4,0.152,759.9,01.16,0.508
2014-05-07 02:54:00,2792E-2,5C000400,-0724,1038,10293,029.0,045.4,0.152,760.0,01.16,0.508
2014-05-07 02:55:00,2746E-2,5C000400,-0724,1037,10236,029.0,045.4,0.152,760.0,01.16,0.508
2014-05-07 02:56:00,2798E-2,5C000400,-0724,1039,10110,029.0,045.4,0.152,760.0,01.16,0.508
2014-05-07 02:57:00,2765E-2,5C000400,-0724,1037,10017,029.1,045.4,0.152,759.9,01.16,0.508
2014-05-07 02:58:00,2809E-2,5C000400,-0724,1038,10319,029.0,045.4,0.152,759.9,01.16,0.508
2014-05-07 02:59:00,2819E-2,5C000400,-0724,1038,10187,029.0,045.4,0.152,759.8,01.16,0.508
2014-05-07 03:00:00,2779E-2,5C000400,-0724,1037,10027,029.1,045.4,0.152,759.8,01.16,0.508
2014-05-07 03:01:00,2780E-2,5C000400,-0724,1037,10216,029.1,045.4,0.152,759.9,01.16,0.508
2014-05-07 03:02:00,2813E-2,5C000410,-0724,1036,9986,029.1,045.4,0.152,759.8,01.16,0.508
2014-05-07 03:03:00,2800E-2,5C000400,-0724,1037,10242,029.1,045.3,0.152,759.8,01.16,0.508
2014-05-07 03:04:00,2774E-2,5C000400,-0724,1037,10225,029.1,045.4,0.152,759.8,01.16,0.508
2014-05-07 03:05:00,2797E-2,5C000400,-0724,1036,10146,029.1,045.4,0.152,759.7,01.16,0.508
2014-05-07 03:06:00,2819E-2,5C000400,-0724,1036,10315,029.1,045.4,0.152,759.7,01.16,0.508
2014-05-07 03:07:00,2767E-2,5C000400,-0724,1036,10103,029.1,045.4,0.152,759.7,01.16,0.508
2014-05-07 03:08:00,2782E-2,5C000400,-0724,1037,10326,029.1,045.4,0.152,759.8,01.16,0.508
2014-05-07 03:09:00,2785E-2,5C000410,-0724,1035,10165,029.1,045.4,0.151,759.8,01.16,0.508
2014-05-07 03:10:00,2786E-2,5C000400,-0724,1035,10263,029.1,045.4,0.152,759.7,01.16,0.508
2014-05-07 03:11:00,2751E-2,5C000400,-0724,1036,10163,029.1,045.4,0.151,759.8,01.16,0.508
2014-05-07 03:12:00,2805E-2,5C000400,-0724,1035,10236,029.1,045.4,0.151,759.8,01.16,0.508
2014-05-07 03:13:00,2771E-2,5C000400,-0724,1035,10207,029.1,045.4,0.151,759.7,01.16,0.508
2014-05-07 03:14:00,2795E-2,5C000400,-0724,1034,10287,029.1,045.4,0.151,759.7,01.16,0.508
2014-05-07 03:15:00,2825E-2,5C000400,-0724,1036,10163,029.1,045.3,0.151,759.6,01.16,0.508
2014-05-07 03:16:00,2798E-2,5C000400,-0724,1035,10063,029.1,045.4,0.151,759.7,01.16,0.508
2014-05-07 03:17:00,2795E-2,5C000400,-0724,1034,10246,029.1,045.4,0.151,759.7,01.16,0.508
2014-05-07 03:18:00,2803E-2,5C000400,-0724,1034,10215,029.1,045.4,0.151,759.7,01.16,0.508
2014-05-07 03:19:00,2789E-2,5C000400,-0724,1035,10221,029.1,045.4,0.151,759.7,01.16,0.508
2014-05-07 03:20:00,2782E-2,5C000410,-0724,1035,10065,029.1,045.4,0.151,759.7,01.16,0.508
2014-05-07 03:21:00,2769E-2,5C000400,-0724,1034,10049,029.1,045.4,0.151,759.7,01.16,0.508
2014-05-07 03:22:00,2820E-2,5C000400,-0724,1035,10161,029.1,045.4,0.151,759.6,01.16,0.508
2014-05-07 03:23:00,2830E-2,5C000400,-0724,1034,10061,029.1,045.4,0.151,759.6,01.16,0.508
2014-05-07 03:24:00,2826E-2,5C000400,-0724,1034,10180,029.1,045.4,0.151,759.6,01.16,0.508
2014-05-07 03:25:00,2771E-2,5C000400,-0724,1033,10276,029.1,045.4,0.151,759.6,01.16,0.508
2014-05-07 03:26:00,2744E-2,5C000400,-0724,1034,10310,029.2,045.4,0.151,759.6,01.16,0.508
2014-05-07 03:27:00,2736E-2,5C000400,-0724,1034,10261,029.2,045.3,0.151,759.6,01.16,0.508
2014-05-07 03:28:00,2812E-2,5C000400,-0724,1033,10084,029.2,045.4,0.151,759.6,01.16,0.508
2014-05-07 03:29:00,2813E-2,5C000410,-0724,1035,10276,029.2,045.3,0.151,759.6,01.16,0.508
2014-05-07 03:30:00,2823E-2,5C000400,-0724,1034,10234,029.2,045.4,0.151,759.5,01.16,0.508
2014-05-07 03:31:00,2836E-2,5C000400,-0724,1034,10189,029.2,045.4,0.151,759.5,01.16,0.508
2014-05-07 03:32:00,2794E-2,5C000400,-0724,1035,10222,029.2,045.4,0.151,759.6,01.16,0.508
2014-05-07 03:33:00,2832E-2,5C000400,-0724,1033,10188,029.2,045.4,0.151,759.6,01.16,0.508
2014-05-07 03:34:00,2775E-2,5C000400,-0724,1034,10247,029.2,045.4,0.151,759.5,01.16,0.508
2014-05-07 03:35:00,2788E-2,5C000400,-0724,1032,10293,029.2,045.4,0.151,759.5,01.16,0.508
2014-05-07 03:36:00,2813E-2,5C000400,-0724,1033,10311,029.2,045.4,0.151,759.6,01.16,0.508
2014-05-07 03:37:00,2787E-2,5C000400,-0724,1034,10190,029.2,045.4,0.151,759.5,01.16,0.508
2014-05-07 03:38:00,2797E-2,5C000400,-0724,1033,10238,029.2,045.4,0.151,759.5,01.16,0.508
2014-05-07 03:39:00,2709E-2,5C000400,-0724,1037,10172,029.2,045.4,0.151,759.4,01.16,0.508
2014-05-07 03:40:00,2765E-2,5C000400,-0724,1044,10298,029.2,045.4,0.151,759.4,01.16,0.508
2014-05-07 03:41:00,2719E-2,5C000400,-0724,1044,10107,029.2,045.4,0.151,759.4,01.16,0.508
2014-05-07 03:42:00,2712E-2,5C000400,-0724,1046,10021,029.2,045.4,0.151,759.5,01.16,0.508
2014-05-07 03:43:00,2700E-2,5C000410,-0724,1045,9968,029.2,045.4,0.151,759.4,01.16,0.508
2014-05-07 03:44:00,2695E-2,5C000410,-0724,1045,9979,029.2,045.4,0.151,759.4,01.16,0.508
2014-05-07 03:45:00,2687E-2,5C000410,-0724,1047,9926,029.2,045.3,0.151,759.3,01.16,0.508
2014-05-07 03:46:00,2680E-2,5C000400,-0724,1046,10183,029.2,045.4,0.151,759.4,01.16,0.508
2014-05-07 03:47:00,2771E-2,5C000410,-0724,1044,10070,029.2,045.4,0.151,759.4,01.16,0.508
2014-05-07 03:48:00,2719E-2,5C000400,-0724,1044,10082,029.2,045.4,0.151,759.4,01.16,0.508
2014-05-07 03:49:00,2732E-2,5C000410,-0724,1045,10027,029.3,045.4,0.151,759.3,01.16,0.508
2014-05-07 03:50:00,2745E-2,5C000400,-0724,1045,10211,029.3,045.4,0.151,759.3,01.16,0.508
2014-05-07 03:51:00,2710E-2,5C000400,-0724,1042,10074,029.3,045.4,0.151,759.3,01.16,0.508
2014-05-07 03:52:00,2748E-2,5C000400,-0724,1041,10250,029.3,045.3,0.151,759.4,01.16,0.508
2014-05-07 03:53:00,2731E-2,5C000400,-0724,1042,10176,029.3,045.4,0.151,759.3,01.16,0.508
2014-05-07 03:54:00,2764E-2,5C000400,-0724,1040,10153,029.3,045.3,0.151,759.3,01.16,0.508
2014-05-07 03:55:00,2689E-2,5C000400,-0724,1041,10059,029.3,045.3,0.151,759.3,01.16,0.508
2014-05-07 03:56:00,2710E-2,5C000400,-0724,1040,9945,029.3,045.4,0.151,759.3,01.16,0.508
2014-05-07 03:57:00,2724E-2,5C000400,-0724,1039,10237,029.3,045.3,0.151,759.3,01.16,0.508
2014-05-07 03:58:00,2722E-2,5C000400,-0724,1040,10034,029.3,045.4,0.151,759.3,01.16,0.508
2014-05-07 03:59:00,2738E-2,5C000400,-0724,1038,10131,029.3,045.4,0.151,759.3,01.16,0.508
2014-05-07 04:00:00,2720E-2,5C000400,-0724,1039,10148,029.3,045.4,0.151,759.3,01.16,0.508
2014-05-07 04:01:00,2735E-2,5C000400,-0724,1039,10230,029.3,045.4,0.151,759.3,01.16,0.508
2014-05-07 04:02:00,2717E-2,5C000400,-0724,1039,10233,029.3,045.4,0.151,759.3,01.16,0.508
2014-05-07 04:03:00,2736E-2,5C000400,-0724,1036,10052,029.3,045.4,0.151,759.3,01.16,0.508
2014-05-07 04:04:00,2729E-2,5C000400,-0724,1038,10111,029.3,045.4,0.151,759.2,01.16,0.508
2014-05-07 04:05:00,2712E-2,5C000400,-0724,1037,9978,029.3,045.4,0.151,759.2,01.16,0.508
2014-05-07 04:06:00,2710E-2,5C000400,-0724,1038,10202,029.3,045.4,0.151,759.2,01.16,0.508
2014-05-07 04:07:00,2752E-2,5C000400,-0724,1038,10087,029.3,045.4,0.151,759.2,01.16,0.508
2014-05-07 04:08:00,2727E-2,5C000400,-0724,1037,9964,029.4,045.4,0.135,759.2,01.16,0.508
2014-05-07 04:09:00,2701E-2,5C000400,-0724,1038,10024,029.3,045.4,0.000,759.2,01.16,0.508
2014-05-07 04:10:00,2719E-2,5C000400,-0724,1038,9999,029.4,045.4,0.000,759.2,01.16,0.508
2014-05-07 04:11:00,2748E-2,5C000400,-0724,1038,10253,029.3,045.4,0.000,759.2,01.16,0.508
2014-05-07 04:12:00,2720E-2,5C000400,-0724,1038,10273,029.3,045.4,0.000,759.1,01.16,0.508
2014-05-07 04:13:00,2733E-2,5C000410,-0724,1037,10112,029.3,045.3,0.000,759.1,01.16,0.508
2014-05-07 04:14:00,2681E-2,5C000400,-0724,1039,10204,029.3,045.4,0.000,759.2,01.16,0.508
2014-05-07 04:15:00,2728E-2,5C000400,-0724,1038,10137,029.3,045.4,0.000,759.1,01.16,0.508
2014-05-07 04:16:00,2726E-2,5C000400,-0724,1037,9994,029.4,045.4,0.000,759.2,01.16,0.508
2014-05-07 04:17:00,2732E-2,5C000400,-0724,1036,10018,029.4,045.4,0.000,759.1,01.16,0.508
2014-05-07 04:18:00,2716E-2,5C000400,-0724,1036,10090,029.3,045.4,0.000,759.1,01.16,0.508
2014-05-07 04:19:00,2712E-2,5C000400,-0724,1039,10263,029.3,045.4,0.000,759.1,01.16,0.508
2014-05-07 04:20:00,2740E-2,5C000400,-0724,1038,10237,029.4,045.4,0.000,759.1,01.16,0.508